DW8004 Weather Reports


Display with metric or nautical units.
time (UTC)temp
F
wind
direction
speed
MPH
gust
MPH
rain 1hr
in
rain 24hr
in
rain mn
in
humidity
%
barometer
mb
20260509191543 43 94 0.0 0.0 0.10 0.51 0.51 96 1012.0
20260509190017 43 94 0.0 0.0 0.10 0.49 0.49 96 1012.3
20260509184516 43 94 0.0 0.0 0.10 0.47 0.47 96 1012.4
20260509183133 42 94 0.0 0.0 0.09 0.44 0.44 96 1012.6
20260509181549 42 91 0.0 0.0 0.09 0.41 0.41 95 1012.7
20260509180045 42 78 0.0 0.0 0.10 0.39 0.39 95 1012.7
20260509174505 42 147 0.0 0.0 0.10 0.37 0.37 95 1012.9
20260509173105 43 134 0.0 0.0 0.10 0.35 0.35 95 1012.9
20260509171550 42 134 0.0 0.0 0.10 0.32 0.33 95 1013.0
20260509170020 42 130 0.0 0.0 0.08 0.28 0.28 95 1013.2
20260509164504 42 130 0.0 0.0 0.08 0.27 0.27 95 1013.2
20260509163045 41 131 0.0 0.0 0.08 0.25 0.25 95 1013.3
20260509161507 41 131 0.0 0.0 0.07 0.22 0.22 95 1013.6
20260509160109 41 83 0.0 0.0 0.09 0.21 0.21 95 1013.8
20260509154605 41 83 0.0 0.0 0.10 0.19 0.19 95 1014.1
20260509153021 41 252 0.0 0.0 0.10 0.17 0.17 96 1014.3
20260509151615 40 252 0.0 0.0 0.09 0.15 0.15 95 1014.4
20260509150108 41 108 0.0 0.0 0.06 0.12 0.12 96 1014.4
20260509144600 40 108 0.0 0.0 0.04 0.09 0.09 95 1014.5
20260509143035 40 108 0.0 0.0 0.02 0.07 0.07 95 1014.3
20260509141522 40 216 0.0 0.0 0.03 0.06 0.06 95 1014.2
20260509140005 39 216 0.0 0.0 0.03 0.06 0.06 95 1014.1
20260509134602 38 216 0.0 0.0 0.03 0.05 0.05 94 1014.1
20260509133100 38 216 0.0 0.0 0.04 0.05 0.05 94 1014.3
20260509131511 38 216 0.0 0.0 0.03 0.03 0.03 93 1014.2
20260509130059 37 216 0.0 0.0 0.03 0.03 0.03 93 1014.3
20260509124550 37 216 0.0 0.0 0.01 0.01 0.02 93 1014.3
20260509123007 36 216 0.0 0.0 0.01 0.01 0.01 93 1014.5
20260509121559 35 216 0.0 0.0 0.00 0.00 0.00 92 1014.4
20260509120045 35 216 0.0 0.0 0.00 0.00 0.00 92 1014.6
20260509114550 34 216 0.0 0.0 0.00 0.00 0.00 91 1014.7
20260509113032 34 216 0.0 0.0 0.00 0.00 0.00 92 1014.8
20260509111527 34 216 0.0 0.0 0.00 0.00 0.00 92 1015.0
20260509110032 33 217 0.0 0.0 0.00 0.00 0.00 92 1014.9
20260509104502 32 217 0.0 0.0 0.00 0.00 0.00 92 1015.0
20260509103054 32 217 0.0 0.0 0.00 0.00 0.00 93 1015.1
20260509101553 31 217 0.0 0.0 0.00 0.00 0.00 92 1015.1
20260509100058 31 217 0.0 0.0 0.00 0.00 0.00 92 1014.9
20260509094546 31 217 0.0 0.0 0.00 0.00 0.00 92 1015.1
20260509093021 31 218 0.0 0.0 0.00 0.00 0.00 93 1015.0
20260509091527 31 218 0.0 0.0 0.00 0.00 0.00 93 1015.0
20260509090100 31 218 0.0 0.0 0.00 0.00 0.00 94 1015.0
20260509084600 30 218 0.0 0.0 0.00 0.00 0.00 93 1015.1
20260509083051 30 218 0.0 0.0 0.00 0.00 0.00 93 1014.9
20260509081508 29 218 0.0 0.0 0.00 0.00 0.00 94 1014.5
20260509080113 29 218 0.0 0.0 0.00 0.00 0.00 93 1014.5
20260509074604 29 218 0.0 0.0 0.00 0.00 0.00 93 1014.4
20260509073053 29 218 0.0 0.0 0.00 0.00 0.00 93 1014.3
20260509071537 30 218 0.0 0.0 0.00 0.00 0.00 93 1014.4
20260509070002 30 218 0.0 0.0 0.00 0.00 0.00 92 1014.3
20260509064556 30 218 0.0 0.0 0.00 0.00 0.00 91 1014.6
20260509063036 31 218 0.0 0.0 0.00 0.00 0.00 91 1014.5
20260509061528 31 218 0.0 0.0 0.00 0.00 0.00 91 1014.6
20260509060002 31 218 0.0 0.0 0.00 0.00 0.00 92 1014.7
20260509054557 32 218 0.0 0.0 0.00 0.00 0.00 92 1014.9
20260509053054 32 218 0.0 0.0 0.00 0.00 0.00 92 1014.9
20260509051537 32 218 0.0 0.0 0.00 0.00 0.00 92 1014.9
20260509050050 31 218 0.0 0.0 0.00 0.00 0.00 92 1014.8
20260509044541 31 218 0.0 0.0 0.00 0.00 0.00 91 1014.7
20260509043005 31 218 0.0 0.0 0.00 0.00 0.00 90 1014.6
20260509041550 32 218 0.0 0.0 0.00 0.00 0.00 90 1014.5
20260509034541 33 218 0.0 0.0 0.00 0.00 0.00 89 1014.3
20260509033017 33 218 0.0 0.0 0.00 0.00 0.00 89 1014.3
20260509031530 33 218 0.0 0.0 0.00 0.00 0.00 89 1014.2
20260509030005 34 218 0.0 0.0 0.00 0.00 0.00 88 1014.1
20260509024559 34 218 0.0 0.0 0.00 0.00 0.00 88 1013.9
20260509023052 35 218 0.0 0.0 0.00 0.00 0.00 87 1013.8
20260509021528 35 218 0.0 0.0 0.00 0.00 0.00 86 1013.7
20260509020041 36 218 0.0 0.0 0.00 0.00 0.00 85 1013.5
20260509014606 37 218 0.0 0.0 0.00 0.00 0.00 85 1013.3
20260509013054 38 218 0.0 0.0 0.00 0.00 0.00 83 1013.0
20260509011507 38 218 0.0 0.0 0.00 0.00 0.00 81 1012.8
20260509010101 39 218 0.0 0.0 0.00 0.00 0.00 80 1012.7
20260509004555 40 218 0.0 0.0 0.00 0.00 0.00 78 1012.4
20260509003016 42 218 0.0 0.0 0.00 0.00 0.00 77 1012.0
20260509001608 42 218 0.0 0.0 0.00 0.00 0.00 75 1011.9
20260509000100 43 218 0.0 0.0 0.00 0.00 0.00 74 1011.8
20260508234544 44 218 0.0 0.0 0.00 0.00 0.00 71 1011.7
20260508233023 44 236 0.0 0.0 0.00 0.00 0.00 69 1011.4
20260508231506 45 248 0.0 0.0 0.00 0.00 0.00 68 1011.3
20260508230017 45 246 0.0 0.0 0.00 0.00 0.00 69 1011.2
20260508224632 44 246 0.0 0.0 0.00 0.00 0.00 68 1011.1
20260508223104 45 234 0.0 0.0 0.00 0.00 0.00 66 1010.9
20260508221607 45 348 0.0 0.0 0.00 0.00 0.00 65 1010.9
20260508220049 46 280 0.0 0.0 0.00 0.00 0.00 64 1010.8
20260508214552 46 181 0.0 0.0 0.00 0.00 0.00 65 1010.6
20260508213038 46 292 0.0 0.0 0.00 0.00 0.00 61 1010.5
20260508211537 47 144 0.0 0.0 0.00 0.00 0.00 59 1010.3
20260508210013 47 315 0.0 0.0 0.00 0.00 0.00 57 1010.2
20260508204556 48 322 0.0 0.0 0.00 0.00 0.00 55 1010.1
20260508203107 49 257 0.0 0.0 0.00 0.00 0.00 53 1010.1
20260508201541 48 323 0.0 0.0 0.00 0.00 0.00 55 1009.9
20260508200038 47 276 0.0 0.0 0.00 0.00 0.00 56 1010.0
20260508194532 48 272 0.0 0.0 0.00 0.00 0.00 55 1010.1
20260508193009 48 317 0.0 0.0 0.00 0.00 0.00 57 1010.1